{"data":{"norad_id":53999,"epoch":"2026-05-24T22:21:38.785824Z","epoch_age_seconds":81693,"freshness":"FRESH","line1":"1 53999U 22125AM  26144.93169891 -.00000391  00000+0 -64975-5 0  9990","line2":"2 53999  53.2161 231.7737 0001242  85.3625 274.7509 15.08835529200971","mean_motion":15.08835529,"eccentricity":0.0001242,"inclination_deg":53.2161,"raan_deg":231.7737,"arg_perigee_deg":85.3625,"mean_anomaly_deg":274.7509,"bstar":-6.4975e-6,"rev_number":20097,"period_min":95.437837479502,"perigee_km":538.89785261456,"apogee_km":540.61625749784,"semimajor_km":6917.8940550562,"source":"CELESTRAK","updated_at":"2026-05-25T13:38:17.623797Z"}}